Location: Most
(50.5133°N, 13.6207°E)
Time: 20:59:14
(UTC+02:00)

ISS - Pass Details

Date: 19 May 2025
Orbit: 415 x 416 km, 51.6° (Epoch: 16 June)

Event Time Altitude Azimuth Distance (km) Brightness Sun altitude
Rises 22:14:16 0° 284° (WNW) 2,362 1.0 -10.4°
Reaches altitude 10° 22:16:22 10° 283° (WNW) 1,496 -0.1 -10.6°
Maximum altitude 22:19:44 86° 199° (SSW) 423 -3.8 -11.0°
Enters shadow 22:22:35 14° 107° (ESE) 1,285 -1.8 -11.3°
